Location: Jenkins
(46.6460°N, 94.3340°W)
Time: 20:51:39
(UTC-06:00)

Envisat - Visible Passes

Search period start: 05 March 2026 00:00
Search period end: 15 March 2026 01:00
Orbit: 761 x 763 km, 98.4° (Epoch: 5 March)

Date Brightness Start Highest point End Pass type
(mag) Time Alt. Az. Time Alt. Az. Time Alt. Az.
5 Mar 5.1 03:08:30 10° NNE 03:10:07 21° NNE 03:10:07 21° NNE visible
5 Mar 5.1 04:49:07 10° NNW 04:50:15 13° NW 04:50:15 13° NW visible
6 Mar 5.6 02:30:53 10° NNE 02:32:00 16° NNE 02:32:00 16° NNE visible
6 Mar 4.8 04:10:11 10° N 04:12:07 20° NNW 04:12:07 20° NNW visible
7 Mar 4.7 03:31:55 10° N 03:34:00 24° N 03:34:00 24° N visible
8 Mar 5.1 03:54:03 10° NNE 03:55:52 22° NNE 03:55:52 22° NNE visible
8 Mar 4.8 05:34:06 10° NNW 05:36:00 16° NW 05:36:00 16° NW visible
9 Mar 5.6 03:16:37 10° NNE 03:17:45 16° NE 03:17:45 16° NE visible
9 Mar 4.5 04:55:30 10° N 04:57:53 24° NNW 04:57:53 24° NNW visible
10 Mar 4.6 04:17:24 10° N 04:19:46 28° N 04:19:46 28° N visible
10 Mar 5.0 05:58:34 10° NNW 05:59:54 12° NW 05:59:54 12° NW visible
11 Mar 5.1 03:39:40 10° NNE 03:41:38 23° NNE 03:41:38 23° NNE visible
11 Mar 4.6 05:19:15 10° N 05:21:46 21° NW 05:21:46 21° NW visible
12 Mar 5.7 03:02:29 10° NE 03:03:31 15° NE 03:03:31 15° NE visible
12 Mar 4.3 04:40:53 10° N 04:43:39 30° NNW 04:43:39 30° NNW visible
13 Mar 4.5 04:02:55 10° NNE 04:05:32 31° NNE 04:05:32 31° NNE visible
13 Mar 4.8 05:43:19 10° NNW 05:45:39 16° NW 05:45:39 16° NW visible
14 Mar 5.2 03:25:22 10° NNE 03:27:24 22° NE 03:27:24 22° NE visible
14 Mar 4.3 05:04:31 10° N 05:07:32 26° NW 05:07:32 26° NW visible
